,,,PA_Meas_PMT16A,,PR_Meas_QMR101_102,,RH_Meas_QMH101,,SR_Meas_QMS101,,TA_Meas_QMH101,,GenWind,,GenWind,
date,time,status,PA,status,PR,status,RH,status,SR,status,TA,status,DirAvg,status,SpdAvg,
2013-02-16, 00:00:04,VALID,1008.5,VALID,0,VALID,104,VALID,0,VALID,24.9589,VALID,112,VALID,0.553125,
2013-02-16, 00:01:04,VALID,1008.5,VALID,0,VALID,104,VALID,0,VALID,24.9803,VALID,93,VALID,0.812891,
2013-02-16, 00:02:04,VALID,1008.48,VALID,0,VALID,104,VALID,0.112112,VALID,24.9589,VALID,91,VALID,0.776953,
2013-02-16, 00:03:04,VALID,1008.47,VALID,0,VALID,104,VALID,0,VALID,24.9608,VALID,90,VALID,1.15664,
2013-02-16, 00:04:04,VALID,1008.51,VALID,0,VALID,104,VALID,0,VALID,24.9608,VALID,90,VALID,1.14023,
2013-02-16, 00:05:04,VALID,1008.5,VALID,0,VALID,104,VALID,0,VALID,24.9803,VALID,96,VALID,0.854297,
2013-02-16, 00:06:04,VALID,1008.52,VALID,0,VALID,104,VALID,0,VALID,24.9608,VALID,103,VALID,0.989062,
2013-02-16, 00:07:04,VALID,1008.52,VALID,0,VALID,104,VALID,0,VALID,24.9608,VALID,82,VALID,0.630859,
2013-02-16, 00:08:04,VALID,1008.5,VALID,0,VALID,104,VALID,0,VALID,24.9608,VALID,99,VALID,0.497656,
2013-02-16, 00:09:04,VALID,1008.5,VALID,0,VALID,104,VALID,0,VALID,24.9608,VALID,128,VALID,0.834375,
2013-02-16, 00:10:04,VALID,1008.49,VALID,0,VALID,104,VALID,0,VALID,24.9608,VALID,100,VALID,1.31797,
2013-02-16, 00:11:04,VALID,1008.44,VALID,0,VALID,104,VALID,0,VALID,24.9608,VALID,99,VALID,0.914453,
2013-02-16, 00:12:04,VALID,1008.41,VALID,0,VALID,104,VALID,0,VALID,24.9394,VALID,142,VALID,0.894141,
2013-02-16, 00:13:04,VALID,1008.43,VALID,0,VALID,104,VALID,0,VALID,24.9413,VALID,120,VALID,1.03867,
2013-02-16, 00:14:04,VALID,1008.41,VALID,0,VALID,104,VALID,0,VALID,24.9608,VALID,140,VALID,0.978516,
2013-02-16, 00:15:04,VALID,1008.39,VALID,0,VALID,104,VALID,0,VALID,24.9413,VALID,83,VALID,0.707031,
2013-02-16, 00:16:04,VALID,1008.4,VALID,0,VALID,104,VALID,0,VALID,24.9413,VALID,127,VALID,0.899609,
2013-02-16, 00:17:04,VALID,1008.38,VALID,0,VALID,104,VALID,0,VALID,24.9413,VALID,98,VALID,1.26875,
2013-02-16, 00:18:04,VALID,1008.38,VALID,0,VALID,104,VALID,0,VALID,24.9218,VALID,134,VALID,0.852344,
2013-02-16, 00:19:04,VALID,1008.39,VALID,0,VALID,104,VALID,0,VALID,24.9218,VALID,121,VALID,1.225,
2013-02-16, 00:20:04,VALID,1008.39,VALID,0,VALID,104,VALID,0,VALID,24.9218,VALID,111,VALID,1.0543,
2013-02-16, 00:21:04,VALID,1008.37,VALID,0,VALID,104,VALID,0,VALID,24.9413,VALID,121,VALID,0.938281,
2013-02-16, 00:22:04,VALID,1008.38,VALID,0,VALID,104,VALID,0,VALID,24.9218,VALID,122,VALID,1.1,
2013-02-16, 00:23:04,VALID,1008.38,VALID,0,VALID,104,VALID,0,VALID,24.9218,VALID,130,VALID,0.952344,
2013-02-16, 00:24:04,VALID,1008.4,VALID,0,VALID,104,VALID,0,VALID,24.9218,VALID,143,VALID,0.349609,
2013-02-16, 00:25:04,VALID,1008.37,VALID,0,VALID,104,VALID,0,VALID,24.9218,VALID,128,VALID,1.31016,
2013-02-16, 00:26:04,VALID,1008.36,VALID,0,VALID,104,VALID,0,VALID,24.9023,VALID,123,VALID,0.774219,
2013-02-16, 00:27:04,VALID,1008.39,VALID,0,VALID,104,VALID,0,VALID,24.9218,VALID,110,VALID,0.560156,
2013-02-16, 00:28:04,VALID,1008.33,VALID,0,VALID,104,VALID,0,VALID,24.8828,VALID,115,VALID,0.501562,
2013-02-16, 00:29:04,VALID,1008.36,VALID,0,VALID,104,VALID,0,VALID,24.9023,VALID,110,VALID,0.540625,
2013-02-16, 00:30:04,VALID,1008.33,VALID,0,VALID,104,VALID,0,VALID,24.9023,VALID,110,VALID,0.676172,
2013-02-16, 00:31:04,VALID,1008.31,VALID,0,VALID,104,VALID,0,VALID,24.9023,VALID,110,VALID,0.529297,
2013-02-16, 00:32:04,VALID,1008.29,VALID,0,VALID,104,VALID,0,VALID,24.8828,VALID,110,VALID,0.999609,
2013-02-16, 00:33:04,VALID,1008.29,VALID,0,VALID,104,VALID,0,VALID,24.9023,VALID,122,VALID,1.1332,
2013-02-16, 00:34:04,VALID,1008.25,VALID,0,VALID,104,VALID,0,VALID,24.9023,VALID,110,VALID,0.848047,
2013-02-16, 00:35:04,VALID,1008.23,VALID,0,VALID,104,VALID,0,VALID,24.8828,VALID,102,VALID,1.25117,
2013-02-16, 00:36:04,VALID,1008.21,VALID,0,VALID,104,VALID,0,VALID,24.9023,VALID,101,VALID,1.55234,
2013-02-16, 00:37:04,VALID,1008.21,VALID,0,VALID,104,VALID,0,VALID,24.9023,VALID,108,VALID,1.10938,
2013-02-16, 00:38:04,VALID,1008.23,VALID,0,VALID,104,VALID,0,VALID,24.9023,VALID,97,VALID,0.944531,
2013-02-16, 00:39:04,VALID,1008.2,VALID,0,VALID,104,VALID,0,VALID,24.9023,VALID,100,VALID,0.435937,
2013-02-16, 00:40:04,VALID,1008.2,VALID,0,VALID,104,VALID,0,VALID,24.9218,VALID,97,VALID,0.668359,
2013-02-16, 00:41:04,VALID,1008.22,VALID,0,VALID,104,VALID,0.112112,VALID,24.9413,VALID,98,VALID,0.623438,
2013-02-16, 00:42:04,VALID,1008.21,VALID,0,VALID,104,VALID,0,VALID,24.9413,VALID,108,VALID,0.760547,
2013-02-16, 00:43:04,VALID,1008.21,VALID,0,VALID,104,VALID,0,VALID,24.9413,VALID,126,VALID,1.22891,
2013-02-16, 00:44:04,VALID,1008.22,VALID,0,VALID,104,VALID,0,VALID,24.9608,VALID,127,VALID,1.09219,
2013-02-16, 00:45:04,VALID,1008.21,VALID,0,VALID,104,VALID,0,VALID,24.9413,VALID,124,VALID,0.982422,
2013-02-16, 00:46:04,VALID,1008.22,VALID,0,VALID,104,VALID,0,VALID,24.9218,VALID,130,VALID,0.980859,
2013-02-16, 00:47:04,VALID,1008.2,VALID,0,VALID,104,VALID,0,VALID,24.9413,VALID,136,VALID,0.760156,
2013-02-16, 00:48:04,VALID,1008.18,VALID,0,VALID,104,VALID,0,VALID,24.9218,VALID,108,VALID,0.726953,
2013-02-16, 00:49:04,VALID,1008.19,VALID,0,VALID,104,VALID,0,VALID,24.9004,VALID,107,VALID,1.02852,
2013-02-16, 00:50:04,VALID,1008.18,VALID,0,VALID,104,VALID,0,VALID,24.8828,VALID,109,VALID,0.525,
2013-02-16, 00:51:04,VALID,1008.19,VALID,0,VALID,104,VALID,0,VALID,24.8828,VALID,108,VALID,0.982031,
2013-02-16, 00:52:04,VALID,1008.17,VALID,0,VALID,104,VALID,0,VALID,24.8828,VALID,75,VALID,1.00586,
2013-02-16, 00:53:04,VALID,1008.16,VALID,0,VALID,104,VALID,0,VALID,24.8828,VALID,70,VALID,1.31133,
2013-02-16, 00:54:04,VALID,1008.16,VALID,0,VALID,104,VALID,0,VALID,24.8828,VALID,89,VALID,0.954687,
2013-02-16, 00:55:04,VALID,1008.16,VALID,0,VALID,104,VALID,0,VALID,24.8828,VALID,86,VALID,1.01602,
2013-02-16, 00:56:04,VALID,1008.16,VALID,0,VALID,104,VALID,0,VALID,24.8828,VALID,93,VALID,0.897266,
2013-02-16, 00:57:04,VALID,1008.13,VALID,0,VALID,104,VALID,0,VALID,24.8633,VALID,110,VALID,0.603516,
2013-02-16, 00:58:04,VALID,1008.13,VALID,0,VALID,104,VALID,0,VALID,24.8615,VALID,87,VALID,1.23008,
2013-02-16, 00:59:04,VALID,1008.11,VALID,0,VALID,104,VALID,0,VALID,24.8633,VALID,95,VALID,1.50781,
2013-02-16, 01:00:04,VALID,1008.07,VALID,0,VALID,104,VALID,0,VALID,24.8438,VALID,93,VALID,1.33828,
2013-02-16, 01:01:04,VALID,1008.08,VALID,0,VALID,104,VALID,0,VALID,24.8438,VALID,80,VALID,1.16992,
2013-02-16, 01:02:04,VALID,1008.09,VALID,0,VALID,104,VALID,0,VALID,24.8652,VALID,85,VALID,1.32852,
2013-02-16, 01:03:04,VALID,1008.07,VALID,0,VALID,104,VALID,0,VALID,24.8244,VALID,96,VALID,1.08086,
2013-02-16, 01:04:04,VALID,1008.07,VALID,0,VALID,104,VALID,0,VALID,24.8244,VALID,90,VALID,0.815234,
2013-02-16, 01:05:04,VALID,1008.03,VALID,0,VALID,104,VALID,0,VALID,24.8049,VALID,112,VALID,1.05703,
2013-02-16, 01:06:04,VALID,1008.03,VALID,0,VALID,104,VALID,0,VALID,24.8049,VALID,121,VALID,0.632031,
2013-02-16, 01:07:04,VALID,1008.03,VALID,0,VALID,104,VALID,0,VALID,24.8244,VALID,139,VALID,0.751172,
2013-02-16, 01:08:04,VALID,1007.99,VALID,0,VALID,104,VALID,0,VALID,24.8244,VALID,131,VALID,0.378516,
2013-02-16, 01:09:04,VALID,1007.98,VALID,0,VALID,104,VALID,0,VALID,24.8049,VALID,129,VALID,0.980078,
2013-02-16, 01:10:05,VALID,1007.99,VALID,0,VALID,104,VALID,0,VALID,24.8049,VALID,117,VALID,0.516797,
2013-02-16, 01:11:05,VALID,1007.98,VALID,0,VALID,104,VALID,0,VALID,24.8049,VALID,109,VALID,0.377734,
2013-02-16, 01:12:05,VALID,1007.98,VALID,0,VALID,104,VALID,0,VALID,24.8049,VALID,140,VALID,1.1082,
2013-02-16, 01:13:05,VALID,1007.98,VALID,0,VALID,104,VALID,0,VALID,24.8049,VALID,149,VALID,0.933984,
2013-02-16, 01:14:05,VALID,1007.98,VALID,0,VALID,104,VALID,0,VALID,24.8049,VALID,120,VALID,0.764453,
2013-02-16, 01:15:05,VALID,1007.98,VALID,0,VALID,104,VALID,0,VALID,24.7854,VALID,103,VALID,1.18867,
2013-02-16, 01:16:05,VALID,1007.98,VALID,0,VALID,104,VALID,0,VALID,24.764,VALID,102,VALID,0.597656,
2013-02-16, 01:17:05,VALID,1007.97,VALID,0,VALID,104,VALID,0,VALID,24.764,VALID,122,VALID,1.15508,
2013-02-16, 01:18:05,VALID,1007.96,VALID,0,VALID,104,VALID,0,VALID,24.8049,VALID,131,VALID,0.659375,
2013-02-16, 01:19:05,VALID,1007.97,VALID,0,VALID,104,VALID,0,VALID,24.8049,VALID,108,VALID,0.845703,
2013-02-16, 01:20:05,VALID,1007.93,VALID,0,VALID,104,VALID,0,VALID,24.8049,VALID,108,VALID,0.607031,
2013-02-16, 01:21:05,VALID,1007.91,VALID,0,VALID,104,VALID,0,VALID,24.7854,VALID,132,VALID,0.674219,
2013-02-16, 01:22:05,VALID,1007.91,VALID,0,VALID,104,VALID,0,VALID,24.7872,VALID,124,VALID,0.637891,
2013-02-16, 01:23:05,VALID,1007.89,VALID,0,VALID,104,VALID,0,VALID,24.7659,VALID,96,VALID,0.692969,
2013-02-16, 01:24:05,VALID,1007.89,VALID,0,VALID,104,VALID,0,VALID,24.7464,VALID,129,VALID,1.19102,
2013-02-16, 01:25:05,VALID,1007.88,VALID,0,VALID,104,VALID,0,VALID,24.7055,VALID,89,VALID,1.2543,
2013-02-16, 01:26:05,VALID,1007.89,VALID,0,VALID,104,VALID,0,VALID,24.6879,VALID,126,VALID,1.07813,
2013-02-16, 01:27:05,VALID,1007.86,VALID,0,VALID,104,VALID,0,VALID,24.7288,VALID,96,VALID,1.06523,
2013-02-16, 01:28:05,VALID,1007.84,VALID,0,VALID,104,VALID,0,VALID,24.7074,VALID,99,VALID,0.585156,
2013-02-16, 01:29:05,VALID,1007.86,VALID,0,VALID,104,VALID,0,VALID,24.6879,VALID,101,VALID,0.391406,
2013-02-16, 01:30:05,VALID,1007.81,VALID,0,VALID,104,VALID,0,VALID,24.6684,VALID,132,VALID,1.29492,
2013-02-16, 01:31:05,VALID,1007.79,VALID,0,VALID,104,VALID,0,VALID,24.7074,VALID,130,VALID,0.520312,
2013-02-16, 01:32:05,VALID,1007.81,VALID,0,VALID,104,VALID,0,VALID,24.6879,VALID,81,VALID,1.26289,
2013-02-16, 01:33:05,VALID,1007.78,VALID,0,VALID,104,VALID,0,VALID,24.6489,VALID,85,VALID,1.59375,
2013-02-16, 01:34:05,VALID,1007.77,VALID,0,VALID,104,VALID,0,VALID,24.6684,VALID,97,VALID,1.14922,
2013-02-16, 01:35:05,VALID,1007.77,VALID,0,VALID,104,VALID,0,VALID,24.6684,VALID,96,VALID,1.64141,
2013-02-16, 01:36:05,VALID,1007.77,VALID,0,VALID,104,VALID,0,VALID,24.6684,VALID,105,VALID,1.275,
2013-02-16, 01:37:05,VALID,1007.77,VALID,0,VALID,104,VALID,0,VALID,24.6489,VALID,103,VALID,0.720312,
2013-02-16, 01:38:05,VALID,1007.77,VALID,0,VALID,104,VALID,0,VALID,24.6489,VALID,99,VALID,1.14141,
2013-02-16, 01:39:05,VALID,1007.78,VALID,0,VALID,104,VALID,0,VALID,24.6489,VALID,106,VALID,1.47148,
2013-02-16, 01:40:05,VALID,1007.77,VALID,0,VALID,104,VALID,0,VALID,24.6703,VALID,104,VALID,1.16211,
2013-02-16, 01:41:05,VALID,1007.77,VALID,0,VALID,104,VALID,0,VALID,24.6489,VALID,95,VALID,0.682813,
2013-02-16, 01:42:05,VALID,1007.73,VALID,0,VALID,104,VALID,0,VALID,24.6489,VALID,103,VALID,0.463672,
2013-02-16, 01:43:05,VALID,1007.75,VALID,0,VALID,104,VALID,0,VALID,24.6294,VALID,103,VALID,0.667578,
2013-02-16, 01:44:05,VALID,1007.75,VALID,0,VALID,104,VALID,0,VALID,24.6294,VALID,103,VALID,0.444531,
2013-02-16, 01:45:05,VALID,1007.74,VALID,0,VALID,104,VALID,0,VALID,24.6099,VALID,93,VALID,0.858594,
2013-02-16, 01:46:05,VALID,1007.71,VALID,0,VALID,104,VALID,0,VALID,24.6099,VALID,85,VALID,0.940234,
2013-02-16, 01:47:05,VALID,1007.72,VALID,0,VALID,104,VALID,0,VALID,24.6099,VALID,87,VALID,1.01953,
2013-02-16, 01:48:05,VALID,1007.71,VALID,0,VALID,104,VALID,0,VALID,24.5905,VALID,87,VALID,0.858594,
2013-02-16, 01:49:05,VALID,1007.67,VALID,0,VALID,104,VALID,0,VALID,24.5905,VALID,121,VALID,1.43281,
2013-02-16, 01:50:05,VALID,1007.64,VALID,0,VALID,104,VALID,0,VALID,24.571,VALID,83,VALID,1.39727,
2013-02-16, 01:51:05,VALID,1007.64,VALID,0,VALID,104,VALID,0,VALID,24.5496,VALID,67,VALID,0.844531,
2013-02-16, 01:52:05,VALID,1007.62,VALID,0,VALID,104,VALID,0,VALID,24.571,VALID,74,VALID,1.05156,
2013-02-16, 01:53:05,VALID,1007.62,VALID,0,VALID,104,VALID,0,VALID,24.571,VALID,92,VALID,0.489453,
2013-02-16, 01:54:05,VALID,1007.6,VALID,0,VALID,104,VALID,0,VALID,24.571,VALID,126,VALID,0.790234,
2013-02-16, 01:55:05,VALID,1007.56,VALID,0,VALID,104,VALID,0,VALID,24.571,VALID,85,VALID,0.439063,
2013-02-16, 01:56:05,VALID,1007.57,VALID,0,VALID,104,VALID,0,VALID,24.5515,VALID,68,VALID,0.702344,
2013-02-16, 01:57:05,VALID,1007.53,VALID,0,VALID,104,VALID,0,VALID,24.571,VALID,110,VALID,0.847656,
2013-02-16, 01:58:05,VALID,1007.57,VALID,0,VALID,104,VALID,0,VALID,24.5728,VALID,89,VALID,0.996094,
2013-02-16, 01:59:05,VALID,1007.58,VALID,0,VALID,104,VALID,0,VALID,24.5515,VALID,84,VALID,1.1125,
2013-02-16, 02:00:05,VALID,1007.57,VALID,0,VALID,104,VALID,0,VALID,24.532,VALID,86,VALID,1.06992,
2013-02-16, 02:01:05,VALID,1007.54,VALID,0,VALID,104,VALID,0,VALID,24.5125,VALID,76,VALID,1.88594,
2013-02-16, 02:02:05,VALID,1007.55,VALID,0,VALID,104,VALID,0,VALID,24.5338,VALID,110,VALID,0.994531,
2013-02-16, 02:03:05,VALID,1007.53,VALID,0,VALID,104,VALID,0,VALID,24.4735,VALID,110,VALID,1.0668,
2013-02-16, 02:04:05,VALID,1007.53,VALID,0,VALID,104,VALID,0,VALID,24.4735,VALID,109,VALID,1.51172,
2013-02-16, 02:05:05,VALID,1007.5,VALID,0,VALID,104,VALID,0,VALID,24.4754,VALID,106,VALID,1.34297,
2013-02-16, 02:06:05,VALID,1007.51,VALID,0,VALID,104,VALID,0,VALID,24.4559,VALID,100,VALID,1.34648,
2013-02-16, 02:07:05,VALID,1007.48,VALID,0,VALID,104,VALID,0,VALID,24.4345,VALID,98,VALID,1.34883,
2013-02-16, 02:08:05,VALID,1007.49,VALID,0,VALID,104,VALID,0,VALID,24.4345,VALID,100,VALID,1.41758,
2013-02-16, 02:09:05,VALID,1007.46,VALID,0,VALID,104,VALID,0,VALID,24.415,VALID,95,VALID,1.09414,
2013-02-16, 02:10:05,VALID,1007.44,VALID,0,VALID,104,VALID,0,VALID,24.3956,VALID,103,VALID,1.18906,
2013-02-16, 02:11:05,VALID,1007.43,VALID,0,VALID,104,VALID,0,VALID,24.3956,VALID,84,VALID,0.976172,
2013-02-16, 02:12:05,VALID,1007.4,VALID,0,VALID,104,VALID,0,VALID,24.3761,VALID,82,VALID,1.00273,
2013-02-16, 02:13:05,VALID,1007.38,VALID,0,VALID,104,VALID,0,VALID,24.3566,VALID,98,VALID,1.34883,
2013-02-16, 02:14:05,VALID,1007.33,VALID,0,VALID,104,VALID,0,VALID,24.3566,VALID,95,VALID,1.09258,
2013-02-16, 02:15:05,VALID,1007.29,VALID,0,VALID,104,VALID,0,VALID,24.3371,VALID,117,VALID,0.714453,
2013-02-16, 02:16:05,VALID,1007.26,VALID,0,VALID,104,VALID,0,VALID,24.3566,VALID,108,VALID,0.466406,
2013-02-16, 02:17:05,VALID,1007.24,VALID,0,VALID,104,VALID,0,VALID,24.3371,VALID,107,VALID,0.600781,
2013-02-16, 02:18:05,VALID,1007.24,VALID,0,VALID,104,VALID,0,VALID,24.3371,VALID,102,VALID,0.564453,
2013-02-16, 02:19:05,VALID,1007.25,VALID,0,VALID,104,VALID,0,VALID,24.3176,VALID,61,VALID,0.972656,
2013-02-16, 02:20:05,VALID,1007.23,VALID,0,VALID,104,VALID,0,VALID,24.3176,VALID,91,VALID,1.16797,
2013-02-16, 02:21:05,VALID,1007.23,VALID,0,VALID,104,VALID,0,VALID,24.2981,VALID,88,VALID,0.660937,
2013-02-16, 02:22:05,VALID,1007.21,VALID,0,VALID,104,VALID,0,VALID,24.2786,VALID,114,VALID,0.428125,
2013-02-16, 02:23:05,VALID,1007.23,VALID,0,VALID,104,VALID,0,VALID,24.2591,VALID,99,VALID,1.40469,
2013-02-16, 02:24:05,VALID,1007.25,VALID,0,VALID,104,VALID,0,VALID,24.2591,VALID,111,VALID,1.4043,
2013-02-16, 02:25:05,VALID,1007.24,VALID,0,VALID,104,VALID,0,VALID,24.2396,VALID,87,VALID,0.998047,
2013-02-16, 02:26:05,VALID,1007.29,VALID,0,VALID,104,VALID,0,VALID,24.2396,VALID,74,VALID,0.515234,
2013-02-16, 02:27:05,VALID,1007.29,VALID,0,VALID,104,VALID,0,VALID,24.2396,VALID,97,VALID,0.684375,
2013-02-16, 02:28:05,VALID,1007.31,VALID,0,VALID,104,VALID,0,VALID,24.2202,VALID,112,VALID,0.824609,
2013-02-16, 02:29:05,VALID,1007.3,VALID,0,VALID,104,VALID,0,VALID,24.2202,VALID,105,VALID,0.702344,
2013-02-16, 02:30:05,VALID,1007.28,VALID,0,VALID,104,VALID,0,VALID,24.2202,VALID,99,VALID,0.880469,
2013-02-16, 02:31:05,VALID,1007.32,VALID,0,VALID,104,VALID,0,VALID,24.2202,VALID,78,VALID,0.901563,
2013-02-16, 02:32:05,VALID,1007.3,VALID,0,VALID,104,VALID,0,VALID,24.2202,VALID,71,VALID,0.420703,
2013-02-16, 02:33:05,VALID,1007.31,VALID,0,VALID,104,VALID,0,VALID,24.2202,VALID,107,VALID,0.841016,
2013-02-16, 02:34:05,VALID,1007.33,VALID,0,VALID,104,VALID,0,VALID,24.2007,VALID,82,VALID,0.606641,
2013-02-16, 02:35:05,VALID,1007.31,VALID,0,VALID,104,VALID,0,VALID,24.2007,VALID,88,VALID,1.30117,
2013-02-16, 02:36:05,VALID,1007.32,VALID,0,VALID,104,VALID,0,VALID,24.1812,VALID,100,VALID,0.967969,
2013-02-16, 02:37:05,VALID,1007.31,VALID,0,VALID,104,VALID,0,VALID,24.1617,VALID,112,VALID,0.923828,
2013-02-16, 02:38:05,VALID,1007.33,VALID,0,VALID,104,VALID,0,VALID,24.1404,VALID,99,VALID,0.645312,
2013-02-16, 02:39:05,VALID,1007.34,VALID,0,VALID,104,VALID,0,VALID,24.1422,VALID,78,VALID,0.784375,
2013-02-16, 02:40:05,VALID,1007.35,VALID,0,VALID,104,VALID,0,VALID,24.1404,VALID,104,VALID,0.814844,
2013-02-16, 02:41:05,VALID,1007.35,VALID,0,VALID,104,VALID,0,VALID,24.1422,VALID,90,VALID,1.15,
2013-02-16, 02:42:05,VALID,1007.36,VALID,0,VALID,104,VALID,0,VALID,24.1422,VALID,88,VALID,0.836328,
2013-02-16, 02:43:05,VALID,1007.35,VALID,0,VALID,104,VALID,0,VALID,24.1014,VALID,65,VALID,1.33633,
2013-02-16, 02:44:05,VALID,1007.35,VALID,0,VALID,104,VALID,0,VALID,24.1422,VALID,88,VALID,0.852344,
2013-02-16, 02:45:05,VALID,1007.33,VALID,0,VALID,104,VALID,0,VALID,24.1422,VALID,78,VALID,0.812109,
2013-02-16, 02:46:05,VALID,1007.33,VALID,0,VALID,104,VALID,0,VALID,24.1227,VALID,102,VALID,0.716797,
2013-02-16, 02:47:05,VALID,1007.34,VALID,0,VALID,104,VALID,0,VALID,24.1227,VALID,83,VALID,0.883594,
2013-02-16, 02:48:05,VALID,1007.33,VALID,0,VALID,104,VALID,0,VALID,24.1227,VALID,65,VALID,0.402734,
2013-02-16, 02:49:05,VALID,1007.35,VALID,0,VALID,104,VALID,0,VALID,24.1422,VALID,65,VALID,1.32305,
2013-02-16, 02:50:05,VALID,1007.34,VALID,0,VALID,104,VALID,0,VALID,24.1617,VALID,60,VALID,0.951563,
2013-02-16, 02:51:05,VALID,1007.33,VALID,0,VALID,104,VALID,0,VALID,24.1617,VALID,81,VALID,0.873438,
2013-02-16, 02:52:05,VALID,1007.36,VALID,0,VALID,104,VALID,0,VALID,24.1209,VALID,78,VALID,0.26875,
2013-02-16, 02:53:05,VALID,1007.32,VALID,0,VALID,104,VALID,0,VALID,24.1422,VALID,79,VALID,1.14063,
2013-02-16, 02:54:05,VALID,1007.36,VALID,0,VALID,104,VALID,0,VALID,24.1209,VALID,56,VALID,1,
2013-02-16, 02:55:05,VALID,1007.38,VALID,0,VALID,104,VALID,0,VALID,24.1422,VALID,57,VALID,0.336719,
2013-02-16, 02:56:05,VALID,1007.34,VALID,0,VALID,104,VALID,0,VALID,24.1209,VALID,81,VALID,1.39492,
2013-02-16, 02:57:05,VALID,1007.36,VALID,0,VALID,104,VALID,0,VALID,24.1422,VALID,97,VALID,1.51094,
2013-02-16, 02:58:05,VALID,1007.35,VALID,0,VALID,104,VALID,0,VALID,24.1209,VALID,73,VALID,1.09063,
2013-02-16, 02:59:05,VALID,1007.32,VALID,0,VALID,104,VALID,0,VALID,24.1227,VALID,105,VALID,1.19492,
2013-02-16, 03:00:05,VALID,1007.37,VALID,0,VALID,104,VALID,0,VALID,24.1227,VALID,103,VALID,1.28867,
2013-02-16, 03:01:05,VALID,1007.33,VALID,0,VALID,104,VALID,0,VALID,24.1032,VALID,95,VALID,0.951953,
2013-02-16, 03:02:05,VALID,1007.33,VALID,0,VALID,104,VALID,0,VALID,24.1032,VALID,81,VALID,0.886328,
2013-02-16, 03:03:05,VALID,1007.33,VALID,0,VALID,104,VALID,0,VALID,24.1227,VALID,101,VALID,1.2207,
2013-02-16, 03:04:05,VALID,1007.32,VALID,0,VALID,104,VALID,0,VALID,24.1014,VALID,79,VALID,0.835938,
2013-02-16, 03:05:05,VALID,1007.32,VALID,0,VALID,104,VALID,0,VALID,24.1032,VALID,83,VALID,1.27578,
2013-02-16, 03:06:05,VALID,1007.3,VALID,0,VALID,104,VALID,0,VALID,24.1032,VALID,87,VALID,0.983203,
2013-02-16, 03:07:05,VALID,1007.29,VALID,0,VALID,104,VALID,0,VALID,24.0643,VALID,85,VALID,0.875781,
2013-02-16, 03:08:05,VALID,1007.26,VALID,0,VALID,104,VALID,0,VALID,24.0837,VALID,82,VALID,0.673828,
2013-02-16, 03:09:05,VALID,1007.29,VALID,0,VALID,104,VALID,0,VALID,24.0819,VALID,70,VALID,1.0043,
2013-02-16, 03:10:05,VALID,1007.28,VALID,0,VALID,104,VALID,0,VALID,24.0643,VALID,76,VALID,0.953906,
2013-02-16, 03:11:05,VALID,1007.29,VALID,0,VALID,104,VALID,0,VALID,24.0643,VALID,62,VALID,1.1125,
2013-02-16, 03:12:05,VALID,1007.29,VALID,0,VALID,104,VALID,0,VALID,24.0643,VALID,78,VALID,1.33086,
2013-02-16, 03:13:05,VALID,1007.3,VALID,0,VALID,104,VALID,0,VALID,24.0448,VALID,89,VALID,1.34844,
2013-02-16, 03:14:05,VALID,1007.31,VALID,0,VALID,104,VALID,0,VALID,24.0448,VALID,92,VALID,1.29609,
2013-02-16, 03:15:05,VALID,1007.32,VALID,0,VALID,104,VALID,0,VALID,24.0253,VALID,67,VALID,0.769922,
2013-02-16, 03:16:05,VALID,1007.33,VALID,0,VALID,104,VALID,0,VALID,24.0058,VALID,67,VALID,0.614844,
2013-02-16, 03:17:05,VALID,1007.31,VALID,0,VALID,104,VALID,0,VALID,24.0058,VALID,68,VALID,0.597266,
2013-02-16, 03:18:05,VALID,1007.31,VALID,0,VALID,104,VALID,0.112112,VALID,24.0448,VALID,70,VALID,0.430078,
2013-02-16, 03:19:05,VALID,1007.3,VALID,0,VALID,104,VALID,0,VALID,24.0253,VALID,98,VALID,0.766016,
2013-02-16, 03:20:05,VALID,1007.31,VALID,0,VALID,104,VALID,0,VALID,24.0058,VALID,81,VALID,0.664844,
2013-02-16, 03:21:05,VALID,1007.29,VALID,0,VALID,104,VALID,0,VALID,23.9863,VALID,69,VALID,0.532422,
2013-02-16, 03:22:05,VALID,1007.28,VALID,0,VALID,104,VALID,0,VALID,24.0058,VALID,70,VALID,0.701563,
2013-02-16, 03:23:05,VALID,1007.27,VALID,0,VALID,104,VALID,0,VALID,23.9845,VALID,55,VALID,0.498437,
2013-02-16, 03:24:05,VALID,1007.25,VALID,0,VALID,104,VALID,0,VALID,24.0058,VALID,55,VALID,0.755078,
2013-02-16, 03:25:05,VALID,1007.27,VALID,0,VALID,104,VALID,0,VALID,24.0058,VALID,56,VALID,0.60625,
2013-02-16, 03:26:05,VALID,1007.26,VALID,0,VALID,104,VALID,0,VALID,24.0253,VALID,55,VALID,0.752734,
2013-02-16, 03:27:05,VALID,1007.27,VALID,0,VALID,104,VALID,0,VALID,24.0253,VALID,55,VALID,0.312891,
2013-02-16, 03:28:05,VALID,1007.25,VALID,0,VALID,104,VALID,0,VALID,24.0448,VALID,55,VALID,0.246875,
2013-02-16, 03:29:05,VALID,1007.25,VALID,0,VALID,104,VALID,0,VALID,24.0429,VALID,55,VALID,0.641797,
2013-02-16, 03:30:05,VALID,1007.25,VALID,0,VALID,104,VALID,0,VALID,24.0235,VALID,55,VALID,0.186328,
2013-02-16, 03:31:05,VALID,1007.25,VALID,0,VALID,104,VALID,0,VALID,24.0429,VALID,80,VALID,0.705078,
2013-02-16, 03:32:05,VALID,1007.25,VALID,0,VALID,104,VALID,0,VALID,24.0624,VALID,79,VALID,0.390234,
2013-02-16, 03:33:05,VALID,1007.25,VALID,0,VALID,104,VALID,0,VALID,24.0837,VALID,80,VALID,0.736328,
2013-02-16, 03:34:05,VALID,1007.24,VALID,0,VALID,104,VALID,0,VALID,24.0837,VALID,70,VALID,0.442969,
2013-02-16, 03:35:05,VALID,1007.25,VALID,0,VALID,104,VALID,0,VALID,24.0643,VALID,64,VALID,0.83125,
2013-02-16, 03:36:05,VALID,1007.26,VALID,0,VALID,104,VALID,0.112112,VALID,24.0837,VALID,90,VALID,0.728125,
2013-02-16, 03:37:05,VALID,1007.29,VALID,0,VALID,104,VALID,0.112112,VALID,24.1032,VALID,89,VALID,0.373437,
2013-02-16, 03:38:05,VALID,1007.25,VALID,0,VALID,104,VALID,0,VALID,24.1227,VALID,88,VALID,0.41875,
2013-02-16, 03:39:05,VALID,1007.26,VALID,0,VALID,104,VALID,0,VALID,24.1032,VALID,88,VALID,0.308984,
2013-02-16, 03:40:05,VALID,1007.27,VALID,0,VALID,104,VALID,0.112112,VALID,24.1227,VALID,101,VALID,0.7625,
2013-02-16, 03:41:05,VALID,1007.26,VALID,0,VALID,104,VALID,0,VALID,24.1032,VALID,85,VALID,0.548047,
2013-02-16, 03:42:05,VALID,1007.29,VALID,0,VALID,104,VALID,0,VALID,24.1032,VALID,66,VALID,1.67031,
2013-02-16, 03:43:05,VALID,1007.3,VALID,0,VALID,104,VALID,0.112112,VALID,24.1032,VALID,75,VALID,0.439453,
2013-02-16, 03:44:05,VALID,1007.31,VALID,0,VALID,104,VALID,0,VALID,24.1032,VALID,74,VALID,0.750391,
2013-02-16, 03:45:05,VALID,1007.32,VALID,0,VALID,104,VALID,0.112112,VALID,24.1209,VALID,130,VALID,0.628906,
2013-02-16, 03:46:05,VALID,1007.31,VALID,0,VALID,104,VALID,0,VALID,24.1014,VALID,89,VALID,1.52109,
2013-02-16, 03:47:05,VALID,1007.29,VALID,0,VALID,104,VALID,0,VALID,24.0624,VALID,74,VALID,1.50898,
2013-02-16, 03:48:05,VALID,1007.3,VALID,0,VALID,104,VALID,0,VALID,24.0429,VALID,83,VALID,0.717578,
2013-02-16, 03:49:05,VALID,1007.28,VALID,0,VALID,104,VALID,0,VALID,24.0643,VALID,99,VALID,0.824219,
2013-02-16, 03:50:05,VALID,1007.28,VALID,0,VALID,104,VALID,0,VALID,24.0624,VALID,72,VALID,0.624609,
2013-02-16, 03:51:05,VALID,1007.27,VALID,0,VALID,104,VALID,0,VALID,24.0837,VALID,72,VALID,0.644141,
2013-02-16, 03:52:05,VALID,1007.26,VALID,0,VALID,104,VALID,0,VALID,24.0643,VALID,72,VALID,0.614453,
2013-02-16, 03:53:05,VALID,1007.24,VALID,0,VALID,104,VALID,0,VALID,24.0837,VALID,53,VALID,1.07539,
2013-02-16, 03:54:04,VALID,1007.27,VALID,0,VALID,104,VALID,0,VALID,24.0837,VALID,78,VALID,1.1418,